Weather History for Galena, AK

Change the Weather History Date:

Saturday, January 19, 2013

  Actual Average Record
Temperature  
Mean Temperature -15 °F -  
Max Temperature 5 °F -5 °F 33 °F (2001)
Min Temperature -35 °F -19 °F -56 °F (1989)
Degree Days  
Heating Degree Days 80    
Moisture  
Dew Point -6 °F    
Average Humidity 74    
Maximum Humidity 87    
Minimum Humidity 63    
Precipitation  
Precipitation 0.00 in - - ()
Sea Level Pressure  
Sea Level Pressure 30.25 in    
Wind  
Wind Speed 3 mph (NNE)    
Max Wind Speed 10 mph    
Max Gust Speed 16 mph    
Visibility 10 miles    
Events Snow    
Averages and records for this station are not official NWS values.
T = Trace of Precipitation, MM = Missing Value Source: NWS Daily Summary

Daily Weather History Graph

Daily Weather History Graph

Search for Another Location

Airport:

Trip Planner

Search our weather history database for the weather conditions in past years. The results will help you decide how hot, cold, wet, or windy it might be!

Date:

Astronomy

Jan. 19, 2013 Rise Set
Actual Time 10:50 AM AKST 4:27 PM AKST
Civil Twilight 9:43 AM AKST 5:34 PM AKST
Nautical Twilight 8:38 AM AKST 6:39 PM AKST
Astronomical Twilight 7:40 AM AKST 7:37 PM AKST
Moon 11:29 AM AKST (1/19) 3:59 AM AKST (1/19)
Length of Visible Light 7h 51m
Length of Day
5h 37m
First Quarter, 58% of the Moon is Illuminated
Jan 19
First Quarter
Jan 26
Full
Feb 3
Last Quarter
Feb 9
New
Feb 17
First Quarter

Hourly Weather History & Observations

Time (AKST) Temp. Windchill Dew Point Humidity Pressure Visibility Wind Dir Wind Speed Gust Speed Precip Events Conditions
12:58 AM -35.0 °F - - N/A% 30.45 in 10.0 mi Calm Calm - N/A   Clear
1:58 AM -35.0 °F - - N/A% 30.43 in 8.0 mi Calm Calm - N/A   Clear
2:58 AM -35.0 °F - - N/A% 30.42 in 8.0 mi Calm Calm - N/A   Clear
3:58 AM -34.1 °F - - N/A% 30.41 in 10.0 mi Calm Calm - N/A   Clear
4:58 AM -33.0 °F - - N/A% 30.39 in 10.0 mi Calm Calm - N/A   Clear
5:58 AM -32.1 °F - - N/A% 30.37 in 10.0 mi Calm Calm - N/A   Clear
6:58 AM -25.1 °F - -29.9 °F 78% 30.35 in 10.0 mi Calm Calm - N/A   Overcast
7:58 AM -20.0 °F -33.3 °F -24.0 °F 82% 30.33 in 10.0 mi West 4.6 mph - N/A   Overcast
8:58 AM -9.9 °F -21.5 °F -14.1 °F 82% 30.32 in 10.0 mi NNW 4.6 mph - N/A   Overcast
9:58 AM -6.0 °F -21.5 °F -9.0 °F 87% 30.31 in 10.0 mi NNE 8.1 mph - N/A   Overcast
10:58 AM -0.9 °F -12.7 °F -5.1 °F 83% 30.27 in 10.0 mi NNE 5.8 mph - N/A   Unknown
11:58 AM 1.0 °F -10.3 °F -4.0 °F 79% 30.26 in 10.0 mi NNE 5.8 mph - N/A   Overcast
12:58 PM 3.0 °F - -2.0 °F 80% 30.25 in 10.0 mi Calm Calm - N/A   Mostly Cloudy
1:58 PM 3.9 °F -5.3 °F -2.0 °F 76% 30.23 in 9.0 mi North 4.6 mph - 0.00 in   Overcast
2:58 PM 3.9 °F -5.3 °F -2.0 °F 76% 30.21 in 10.0 mi Variable 4.6 mph - N/A   Overcast
3:58 PM 5.0 °F -4.1 °F -2.0 °F 73% 30.19 in 9.0 mi NNE 4.6 mph - 0.00 in Snow Light Snow
4:26 PM 5.0 °F -5.6 °F -2.2 °F 72% 30.18 in 7.0 mi NNE 5.8 mph - 0.00 in Snow Light Snow
4:40 PM 5.0 °F -6.9 °F -0.4 °F 78% 30.17 in 8.0 mi NNE 6.9 mph - 0.00 in Snow Light Snow
4:58 PM 3.9 °F -8.2 °F -0.9 °F 80% 30.17 in 9.0 mi NNE 6.9 mph - 0.00 in   Overcast
5:58 PM 5.0 °F -9.1 °F -2.0 °F 73% 30.14 in 10.0 mi NNE 9.2 mph - N/A   Overcast
6:58 PM 5.0 °F -6.9 °F -2.9 °F 70% 30.12 in 10.0 mi NNE 6.9 mph - N/A   Overcast
7:58 PM 5.0 °F -8.1 °F -4.0 °F 66% 30.10 in 10.0 mi NE 8.1 mph 16.1 mph N/A   Overcast
8:58 PM 5.0 °F -8.1 °F -5.1 °F 63% 30.10 in 10.0 mi NE 8.1 mph - N/A   Overcast
9:58 PM 5.0 °F -9.1 °F -5.1 °F 63% 30.08 in 10.0 mi NNE 9.2 mph - N/A   Overcast
10:58 PM 5.0 °F -10.0 °F -5.1 °F 63% 30.09 in 10.0 mi NE 10.4 mph - N/A   Overcast
11:58 PM 5.0 °F -9.1 °F -5.1 °F 63% 30.08 in 10.0 mi NNE 9.2 mph - N/A   Overcast